[[{"header":{"parameterUnit":"m.s-1","parameterCategory":2,"la1":30.2991,"la2":30.254,"lo1":-89.0895,"lo2":-89.0444,"dy":0.0017,"dx":0.0017,"nx":28,"ny":28,"refTime":"2025-05-18T03:00:00:Z","depth":"0","parameterNumber":2,"parameterNumberName":"U-component_of_CURRENTS"},"data":[0,0,0,0,0,0,0,0,0,0,0,0,0,0,0,0,0,0,0,0,0,0,0,0,0,0,0,0,0,0,0,0,0,0,0,0,0,0,0,0,0,0,0,0,0,0,0,0,0,0,0,0,0,0,0,0,0,0,0.1844,0.1846,0,0.2026,0.2028,0.203,0.2086,0.2085,0.2084,0.2083,0.2215,0.2219,0.2223,0,0,0,0,0,0,0,0,0,0,0,0,0,0.1613,0.1617,0.1844,0.1846,0.1849,0.2026,0.2028,0.2031,0.2086,0.2085,0.2084,0.2083,0.2214,0.2219,0.2224,0,0,0,0,0,0,0,0,0,0,0,0,0,0.1745,0.1618,0.1843,0.1898,0.1905,0.2025,0.2028,0.2031,0.2086,0.2085,0.2083,0.2082,0.2212,0.2218,0.2224,0.2288,0,0,0.2244,0.2247,0,0,0,0,0,0,0,0,0.1737,0.1753,0.1888,0.1895,0.1903,0.2033,0.1996,0.2115,0.2086,0.2016,0.2083,0.2082,0.2151,0.2162,0.2198,0.2294,0.23,0.2244,0.2248,0.2251,0.2253,0,0,0,0,0,0,0,0.1728,0.1746,0.1915,0.1891,0.19,0.1938,0.1954,0.2019,0.2086,0.2022,0.2027,0.2049,0.2154,0.2192,0.2202,0.2302,0.2244,0.225,0.2254,0.2256,0.2423,0.2424,0,0,0,0,0,0,0.1706,0.1738,0.1909,0.192,0.1817,0.1943,0.1961,0.1991,0.2087,0.2101,0.205,0.2051,0.2182,0.2194,0.2206,0.2259,0.2251,0.2257,0.2261,0.2423,0.2423,0.2424,0,0,0,0,0,0,0.1701,0.172,0.1902,0.1833,0.1859,0.1948,0.1981,0.1996,0.203,0.2109,0.2122,0.2069,0.2181,0.2197,0.226,0.2265,0.226,0.2266,0.2422,0.2423,0.2424,0.2381,0,0,0,0,0,0,0.1694,0.1717,0.1733,0.1832,0.1862,0.1977,0.1983,0.2,0.2046,0.2049,0.2129,0.2141,0.2182,0.225,0.2266,0.2274,0.2271,0.2421,0.2422,0.2423,0.2382,0.2381,0.238,0,0,0,0,0,0.1685,0.1723,0.1733,0.1754,0.188,0.1978,0.1998,0.2055,0.2048,0.2077,0.2118,0.2138,0.2267,0.2256,0.2275,0.2284,0.2421,0.2422,0.2423,0.2383,0.2381,0.238,0,0,0,0,0,0,0.1643,0.1736,0.1748,0.1814,0.1885,0.1988,0.2025,0.2053,0.2111,0.2104,0.2159,0.2175,0.2231,0.2266,0.2252,0.2335,0.2343,0.2348,0.2306,0.2305,0.2304,0.2282,0.2276,0,0,0,0,0,0.1636,0.1682,0.1772,0.1824,0.1856,0.1932,0.1977,0.2013,0.2078,0.2103,0.2154,0.2203,0.2255,0.2284,0.2341,0.2395,0.2485,0.2409,0.2408,0.2407,0.2402,0.2558,0.2571,0.2428,0.2428,0.2428,0,0,0.1635,0.1692,0.1718,0.1816,0.1873,0.1929,0.1956,0.2024,0.2057,0.2108,0.2161,0.2208,0.227,0.2326,0.2353,0.2353,0.25,0.2408,0.2407,0.2402,0.2561,0.2575,0.2588,0.2429,0.2429,0.2429,0,0,0.1665,0.1703,0.175,0.1804,0.1887,0.1931,0.1943,0.2035,0.2058,0.2124,0.2154,0.22,0.2293,0.233,0.236,0.2389,0.2492,0.2405,0.2382,0.2533,0.2547,0.256,0.2716,0.2743,0.24,0.24,0.24,0,0.1657,0.1735,0.1781,0.1838,0.188,0.1923,0.1977,0.2012,0.2105,0.2131,0.2132,0.2262,0.2294,0.2363,0.2352,0.2385,0.25,0.238,0.2534,0.2548,0.2562,0.2719,0.275,0.2398,0.2399,0.2399,0.2399,0,0.1726,0.178,0.1815,0.1887,0.1929,0.199,0.2033,0.2065,0.2085,0.2129,0.2202,0.2257,0.2336,0.2341,0.2347,0.2445,0.2507,0.252,0.2537,0.2574,0.2737,0.277,0.2396,0.2396,0.2397,0.2397,0,0,0.174,0.1843,0.1855,0.1885,0.196,0.2003,0.2035,0.2099,0.2132,0.2185,0.2266,0.2294,0.2323,0.2357,0.2383,0.2472,0.2647,0.2521,0.253,0.2675,0.3016,0.2965,0.2997,0.2707,0.2712,0.2715,0.3099,0,0.1786,0.1884,0.1923,0.1991,0.2041,0.2067,0.2096,0.2137,0.2185,0.2268,0.2305,0.2393,0.2332,0.2386,0.2456,0.2625,0.2728,0.2543,0.2958,0.297,0.292,0.303,0.2925,0.3249,0.3132,0.3137,0.3141,0,0.1855,0.1905,0.1985,0.2042,0.2062,0.2091,0.2145,0.2181,0.2269,0.2317,0.239,0.2456,0.2572,0.253,0.2809,0.271,0.284,0.2951,0.2971,0.2954,0.2978,0.319,0.3314,0.3161,0.3192,0.3188,0.3184,0,0.1856,0.195,0.2006,0.2032,0.2096,0.2113,0.2134,0.2196,0.2251,0.2372,0.2471,0.2592,0.2724,0.2884,0.3045,0.2981,0.3389,0.3351,0.3428,0.3429,0.3431,0.3421,0.3449,0.3555,0.3554,0.3553,0.3552,0,0.1912,0.195,0.2005,0.2035,0.2072,0.2106,0.2159,0.22,0.2316,0.2423,0.2496,0.264,0.2825,0.305,0.3157,0.3405,0.3498,0.3457,0.3531,0.3412,0.3396,0.3333,0.3234,0.3568,0.3564,0.3562,0.3559,0,0.192,0.1969,0.202,0.2071,0.2082,0.2099,0.2173,0.2238,0.233,0.25,0.2564,0.2777,0.3051,0.3227,0.3552,0.3584,0.3703,0.3855,0.369,0.3732,0.3588,0.3491,0.3551,0.345,0.4031,0.4032,0.4033,0,0.1945,0.1976,0.2026,0.2062,0.2086,0.2119,0.2164,0.2235,0.2335,0.2579,0.2699,0.2984,0.3155,0.3584,0.3739,0.398,0.3788,0.3989,0.3792,0.3585,0.3536,0.3368,0.3264,0.3822,0.3821,0.382,0.3819,0,0.1981,0.1991,0.2041,0.2091,0.2138,0.2179,0.2258,0.233,0.2463,0.2604,0.2834,0.2984,0.3361,0.3542,0.3816,0.3935,0.3752,0.3977,0.3839,0.3423,0.3178,0.3114,0.3563,0.3813,0.3814,0.3814,0.3814,0.3815,0.2014,0.2038,0.2102,0.2145,0.219,0.2242,0.2255,0.237,0.2486,0.2671,0.2864,0.3037,0.3293,0.3645,0.376,0.3797,0.3734,0.3689,0.3622,0.3497,0.3256,0.3661,0.3914,0.3915,0.3916,0.3917,0.3918,0,0.206,0.2096,0.2156,0.2195,0.2221,0.224,0.2328,0.2335,0.2422,0.2632,0.2778,0.2996,0.317,0.336,0.3509,0.3443,0.333,0.3341,0.3074,0.3014,0.3486,0.3321,0.3361,0.3361,0.3361,0.3362,0.3362,0.3362,0.2102,0.2162,0.2177,0.2216,0.2229,0.2224,0.2245,0.2262,0.2363,0.2472,0.2577,0.2718,0.2923,0.3106,0.309,0.306,0.2807,0.2736,0.2677,0.2969,0.2994,0.3018,0.2838,0.2776,0.2775,0.2121,0.2116,0.2112]},{"header":{"parameterUnit":"m.s-1","parameterCategory":2,"la1":30.2991,"la2":30.254,"lo1":-89.0895,"lo2":-89.0444,"dy":0.0017,"dx":0.0017,"nx":28,"ny":28,"refTime":"2025-05-18T03:00:00:Z","depth":"0","parameterNumber":3,"parameterNumberName":"V-component_of_CURRENTS"},"data":[0,0,0,0,0,0,0,0,0,0,0,0,0,0,0,0,0,0,0,0,0,0,0,0,0,0,0,0,0,0,0,0,0,0,0,0,0,0,0,0,0,0,0,0,0,0,0,0,0,0,0,0,0,0,0,0,0,0,0.0006,0.0006,0,-0.0037,-0.0038,-0.0038,-0.0052,-0.0052,-0.0052,-0.0052,-0.0101,-0.0102,-0.0104,0,0,0,0,0,0,0,0,0,0,0,0,0,0.0038,0.0038,0.0006,0.0006,0.0005,-0.0037,-0.0038,-0.0038,-0.0052,-0.0052,-0.0052,-0.0051,-0.01,-0.0102,-0.0104,0,0,0,0,0,0,0,0,0,0,0,0,0,0.0013,0.0038,0.0007,-0.0006,-0.0008,-0.0037,-0.0038,-0.0038,-0.0052,-0.0052,-0.0052,-0.0051,-0.01,-0.0102,-0.0104,-0.0125,0,0,-0.0111,-0.0112,0,0,0,0,0,0,0,0,0.0014,0.0011,-0.0004,-0.0006,-0.0007,-0.0039,-0.0044,-0.0068,-0.0052,-0.0036,-0.0052,-0.0051,-0.0081,-0.0085,-0.0094,-0.0127,-0.0129,-0.0111,-0.0113,-0.0114,-0.0114,0,0,0,0,0,0,0,0.0016,0.0013,-0.0011,-0.0005,-0.0007,-0.0024,-0.0027,-0.0049,-0.006,-0.0037,-0.0038,-0.0043,-0.0082,-0.0092,-0.0095,-0.013,-0.0111,-0.0113,-0.0115,-0.0116,-0.018,-0.018,0,0,0,0,0,0,0.0023,0.0015,-0.001,-0.0012,0.0005,-0.0024,-0.0028,-0.0029,-0.006,-0.0064,-0.0043,-0.0043,-0.0088,-0.0092,-0.0097,-0.0132,-0.0114,-0.0116,-0.0117,-0.018,-0.018,-0.018,0,0,0,0,0,0,0.0024,0.0022,-0.0008,0.0,-0.0005,-0.0025,-0.0027,-0.003,-0.0039,-0.0064,-0.0068,-0.0048,-0.0088,-0.0094,-0.0121,-0.0133,-0.0117,-0.0119,-0.0179,-0.018,-0.018,-0.0196,0,0,0,0,0,0,0.0026,0.0022,0.0025,0.0001,-0.0005,-0.0032,-0.0027,-0.0031,-0.0042,-0.0043,-0.007,-0.0074,-0.0088,-0.0117,-0.0123,-0.0136,-0.0121,-0.0179,-0.0179,-0.018,-0.0195,-0.0197,-0.0198,0,0,0,0,0,0.0027,0.0025,0.0025,0.0022,-0.0001,-0.0033,-0.0038,-0.0051,-0.0043,-0.0056,-0.0069,-0.0073,-0.0125,-0.012,-0.0126,-0.014,-0.0178,-0.0179,-0.018,-0.0194,-0.0196,-0.0198,0,0,0,0,0,0,0.0045,0.0023,0.0023,0.0017,-0.0008,-0.0035,-0.0047,-0.0051,-0.0071,-0.007,-0.0083,-0.009,-0.0117,-0.0125,-0.0118,-0.0159,-0.015,-0.0152,-0.0158,-0.0161,-0.0163,-0.0096,-0.0123,0,0,0,0,0,0.005,0.0041,0.0016,0.0011,-0.0002,-0.0022,-0.0034,-0.0046,-0.0066,-0.0074,-0.0091,-0.0106,-0.0126,-0.0139,-0.016,-0.0186,-0.0125,-0.0196,-0.0198,-0.0199,-0.0148,-0.0062,-0.0049,-0.0183,-0.0183,-0.0183,0,0,0.0057,0.0043,0.004,0.0014,-0.0005,-0.0037,-0.0029,-0.0054,-0.0071,-0.0077,-0.0103,-0.0117,-0.0134,-0.0164,-0.0176,-0.0172,-0.0139,-0.02,-0.0201,-0.0148,-0.0061,-0.0047,-0.0035,-0.0183,-0.0183,-0.0183,0,0,0.0044,0.0051,0.0025,0.0002,-0.0031,-0.0043,-0.0049,-0.008,-0.0083,-0.0115,-0.0116,-0.0118,-0.0172,-0.0165,-0.0174,-0.0192,-0.0151,-0.022,-0.0177,-0.0095,-0.0082,-0.007,-0.0009,0.0009,-0.0221,-0.0221,-0.0221,0,0.0052,0.0026,0.0013,-0.0026,-0.0032,-0.0047,-0.0071,-0.009,-0.0122,-0.0089,-0.0128,-0.012,-0.0161,-0.0134,-0.0159,-0.0192,-0.0141,-0.0174,-0.0093,-0.0079,-0.0066,-0.0006,0.0014,-0.0222,-0.0222,-0.0222,-0.0222,0,0.0003,-0.001,-0.0027,-0.0071,-0.0085,-0.0105,-0.0127,-0.0127,-0.0129,-0.0115,-0.0085,-0.012,-0.0086,-0.0133,-0.0167,-0.0098,-0.0093,-0.0106,-0.008,-0.0053,0.0007,0.0028,-0.0223,-0.0223,-0.0223,-0.0223,0,0,0.001,-0.0046,-0.0052,-0.0049,-0.0099,-0.0099,-0.0121,-0.0098,-0.003,-0.0078,0.0021,-0.0056,-0.0012,-0.0015,-0.004,-0.0,0.0081,-0.002,-0.0016,0.0055,0.0263,0.0204,0.0222,0.0086,0.009,0.0093,0.0256,0,-0.0018,-0.0063,-0.0092,-0.0106,-0.0113,-0.0113,-0.0102,-0.0076,-0.0037,0.0051,0.0057,0.0122,0.0013,0.0056,0.0072,0.012,0.0144,0.0039,0.0216,0.0222,0.018,0.0248,0.0191,0.0327,0.0277,0.0281,0.0283,0,-0.0058,-0.0067,-0.0086,-0.0054,-0.0053,-0.0058,0.0043,0.0045,0.0152,0.0198,0.0271,0.0308,0.0375,0.0272,0.0369,0.0313,0.0286,0.0288,0.0294,0.0279,0.0206,0.0298,0.0369,0.0126,0.0317,0.0314,0.0312,0,-0.0011,-0.005,-0.0038,-0.0044,-0.0031,0.0002,0.0023,0.0114,0.0207,0.0331,0.046,0.0517,0.0621,0.0602,0.0572,0.0499,0.0687,0.0594,0.0509,0.0504,0.0516,0.0505,0.0398,0.0652,0.0652,0.0652,0.0651,0,-0.0004,0.001,-0.0004,0.001,0.0089,0.0067,0.0195,0.0238,0.0382,0.057,0.0563,0.0748,0.0717,0.0806,0.0699,0.0704,0.0794,0.0566,0.0564,0.05,0.0485,0.0322,0.0211,0.0658,0.0656,0.0655,0.0654,0,0.0063,0.0028,0.0069,0.0095,0.0114,0.0181,0.0297,0.0429,0.0523,0.0779,0.0845,0.1003,0.111,0.1043,0.1071,0.092,0.0778,0.0837,0.0748,0.073,0.0374,0.0266,0.0313,0.0241,0.0794,0.0794,0.0794,0,0.0102,0.0117,0.016,0.0221,0.0242,0.0327,0.0427,0.05,0.0673,0.0956,0.1134,0.1295,0.1437,0.1428,0.1206,0.1047,0.0826,0.085,0.0672,0.0388,0.0268,0.0217,0.0149,0.0676,0.0675,0.0674,0.0673,0,0.0222,0.0229,0.0288,0.0388,0.0483,0.0598,0.0746,0.0896,0.1057,0.1269,0.1586,0.1706,0.1671,0.1524,0.1253,0.109,0.0684,0.0823,0.0583,0.0228,0.0125,0.0042,0.0509,0.0665,0.0666,0.0666,0.0667,0.0667,0.0362,0.043,0.0502,0.0609,0.0722,0.0904,0.103,0.1224,0.1485,0.1816,0.1898,0.2062,0.1724,0.1357,0.114,0.0582,0.0633,0.0351,0.0268,0.0261,0.0115,0.0544,0.0644,0.0645,0.0646,0.0646,0.0647,0,0.0551,0.0615,0.0726,0.0867,0.1023,0.103,0.1289,0.1439,0.1749,0.1987,0.2202,0.2047,0.1617,0.1146,0.0435,0.0077,-0.0031,-0.0146,-0.0259,-0.0285,0.0143,0.0047,-0.0043,-0.0043,-0.0042,-0.0042,-0.0042,-0.0042,0.0673,0.0816,0.0849,0.1121,0.1221,0.1436,0.1583,0.1798,0.1978,0.2211,0.224,0.2239,0.1746,0.0517,-0.0312,-0.0477,-0.0724,-0.0754,-0.0843,-0.0649,-0.0611,-0.0575,-0.0697,-0.0941,-0.0942,-0.1252,-0.1256,-0.1259]}],[{"header":{"parameterUnit":"m.s-1","parameterCategory":2,"la1":30.2991,"la2":30.254,"lo1":-89.0895,"lo2":-89.0444,"dy":0.0017,"dx":0.0017,"nx":28,"ny":28,"refTime":"2025-05-18T03:00:00:Z","depth":"2","parameterNumber":2,"parameterNumberName":"U-component_of_CURRENTS"},"data":[0,0,0,0,0,0,0,0,0,0,0,0,0,0,0,0,0,0,0,0,0,0,0,0,0,0,0,0,0,0,0,0,0,0,0,0,0,0,0,0,0,0,0,0,0,0,0,0,0,0,0,0,0,0,0,0,0,0,0.1574,0.1574,0,0.1501,0.15,0.1499,0.1464,0.1464,0.1465,0.1465,0.1405,0.1403,0.1401,0,0,0,0,0,0,0,0,0,0,0,0,0,0.149,0.1493,0.1574,0.1574,0.1573,0.1501,0.15,0.1498,0.1464,0.1464,0.1465,0.1465,0.1406,0.1403,0.1401,0,0,0,0,0,0,0,0,0,0,0,0,0,0.1479,0.1494,0.1574,0.1551,0.1548,0.1501,0.15,0.1498,0.1463,0.1464,0.1465,0.1465,0.1406,0.1404,0.1401,0.1368,0,0,0.1391,0.139,0,0,0,0,0,0,0,0,0.148,0.1482,0.1555,0.1552,0.1549,0.1496,0.1448,0.1457,0.1463,0.1491,0.1465,0.1466,0.1439,0.1434,0.1411,0.1365,0.1363,0.1391,0.1389,0.1388,0.1387,0,0,0,0,0,0,0,0.1481,0.1483,0.154,0.1554,0.1551,0.1478,0.1478,0.1448,0.1459,0.1488,0.1487,0.1486,0.1437,0.1414,0.141,0.1362,0.1391,0.1388,0.1387,0.1385,0.1383,0.1384,0,0,0,0,0,0,0.1509,0.1486,0.1543,0.1539,0.1521,0.148,0.148,0.1509,0.1459,0.1453,0.1485,0.1485,0.1419,0.1414,0.1408,0.1419,0.1388,0.1385,0.1383,0.1381,0.1383,0.1385,0,0,0,0,0,0,0.1508,0.1516,0.1546,0.1511,0.1511,0.1483,0.1514,0.1507,0.1511,0.1457,0.1451,0.15,0.142,0.1412,0.1412,0.1415,0.1384,0.1381,0.1379,0.1381,0.1384,0.1408,0,0,0,0,0,0,0.1507,0.1517,0.1537,0.1515,0.1514,0.1538,0.1513,0.1505,0.1509,0.1508,0.1467,0.146,0.142,0.1417,0.1409,0.141,0.1379,0.1377,0.138,0.1383,0.1405,0.1411,0.1416,0,0,0,0,0,0.1504,0.1531,0.1539,0.1545,0.1548,0.1539,0.1531,0.1507,0.151,0.1513,0.1496,0.1463,0.1433,0.1416,0.1406,0.1406,0.1375,0.1379,0.1383,0.1402,0.141,0.1416,0,0,0,0,0,0,0.1498,0.153,0.1538,0.1573,0.1568,0.1536,0.1521,0.1527,0.1512,0.1514,0.1475,0.1467,0.1467,0.1448,0.1431,0.1422,0.1402,0.1404,0.142,0.1427,0.1432,0.1518,0.1376,0,0,0,0,0,0.1511,0.1545,0.1554,0.1579,0.1575,0.1557,0.1549,0.1549,0.1536,0.153,0.1503,0.1485,0.147,0.1461,0.1438,0.143,0.1498,0.1431,0.1437,0.1441,0.151,0.1646,0.1672,0.1398,0.1398,0.1398,0,0,0.1512,0.1535,0.1552,0.158,0.1561,0.1533,0.1552,0.1554,0.1539,0.1526,0.1494,0.1499,0.1476,0.1463,0.1462,0.1449,0.1543,0.1447,0.145,0.1518,0.1654,0.1681,0.1705,0.14,0.14,0.1399,0,0,0.1506,0.1552,0.1559,0.1549,0.155,0.1539,0.1553,0.1542,0.1547,0.1531,0.1529,0.1572,0.1499,0.1521,0.1512,0.1549,0.157,0.1519,0.1609,0.1738,0.1763,0.1786,0.1852,0.1881,0.1519,0.1519,0.1519,0,0.1501,0.1531,0.1554,0.1531,0.1534,0.1544,0.1538,0.1516,0.1513,0.1575,0.1522,0.1576,0.1534,0.1605,0.1604,0.1563,0.1631,0.1569,0.1748,0.1773,0.1796,0.186,0.1892,0.1521,0.1521,0.1521,0.152,0,0.1487,0.1493,0.1488,0.1475,0.1474,0.1481,0.147,0.1505,0.1519,0.1538,0.1634,0.1615,0.1689,0.1649,0.1618,0.1769,0.1758,0.1738,0.1733,0.1826,0.1885,0.1918,0.1523,0.1523,0.1522,0.1522,0,0,0.1536,0.1495,0.1496,0.151,0.1471,0.1501,0.1487,0.1558,0.164,0.1632,0.1763,0.1742,0.1828,0.1835,0.1835,0.1925,0.2085,0.1907,0.1913,0.1978,0.2356,0.2215,0.2236,0.2107,0.2114,0.2119,0.2311,0,0.153,0.1517,0.1495,0.1494,0.1497,0.1524,0.1533,0.16,0.1648,0.1759,0.1834,0.1907,0.1859,0.1924,0.202,0.2077,0.2185,0.2035,0.2257,0.2264,0.2132,0.2275,0.2014,0.2155,0.2343,0.2348,0.2352,0,0.1527,0.1542,0.1548,0.1595,0.1607,0.1609,0.1763,0.1766,0.1897,0.1952,0.2087,0.2126,0.2271,0.2201,0.2416,0.2329,0.2382,0.2407,0.2414,0.2321,0.2187,0.2105,0.2207,0.2407,0.2403,0.2399,0.2395,0,0.1616,0.1594,0.1642,0.1636,0.166,0.1738,0.1772,0.1873,0.1935,0.2103,0.2189,0.2359,0.2462,0.2574,0.2606,0.2547,0.2826,0.2738,0.2673,0.266,0.2507,0.2469,0.2954,0.2954,0.2954,0.2953,0.2952,0,0.1646,0.169,0.1703,0.1738,0.1836,0.1835,0.1959,0.203,0.2144,0.2257,0.2318,0.2456,0.2575,0.2708,0.2723,0.2803,0.2934,0.2758,0.274,0.2495,0.2456,0.2733,0.2705,0.296,0.2959,0.2957,0.2956,0,0.1712,0.1712,0.1773,0.1842,0.1866,0.1945,0.2007,0.2108,0.22,0.2356,0.2416,0.2595,0.2744,0.2807,0.299,0.2945,0.3015,0.3015,0.2682,0.2621,0.2728,0.2699,0.2978,0.2976,0.2974,0.2972,0.297,0,0.1741,0.1774,0.1844,0.1886,0.1917,0.2,0.2058,0.2134,0.2225,0.2435,0.2542,0.2724,0.2824,0.2986,0.2927,0.2935,0.3029,0.2741,0.258,0.2798,0.2752,0.2725,0.2699,0.2367,0.2361,0.2355,0.2351,0,0.1804,0.1831,0.1886,0.1944,0.2015,0.2055,0.2151,0.2211,0.2338,0.2447,0.2627,0.271,0.2823,0.2719,0.2715,0.2679,0.2696,0.2633,0.3046,0.237,0.2229,0.2179,0.2174,0.2305,0.231,0.2313,0.2316,0.2318,0.1853,0.188,0.1936,0.1988,0.2052,0.2093,0.2097,0.2196,0.2277,0.2339,0.2545,0.2532,0.2566,0.2365,0.2329,0.2266,0.2416,0.2322,0.2337,0.2357,0.2222,0.2082,0.2103,0.2106,0.2109,0.2112,0.2114,0,0.1862,0.19,0.1966,0.2007,0.2026,0.2078,0.2143,0.2089,0.2118,0.2164,0.2201,0.2,0.1943,0.1984,0.1791,0.1789,0.175,0.1756,0.1696,0.1741,0.1782,0.1616,0.1338,0.1336,0.1334,0.1333,0,0,0.1879,0.1913,0.1925,0.1938,0.1976,0.1934,0.1929,0.1864,0.1839,0.1695,0.1625,0.1701,0.1856,0.1537,0.1516,0.1411,0.1559,0.1349,0.196,0.1929,0.1967,0.2089,0.1881,0,0,0,0,0]},{"header":{"parameterUnit":"m.s-1","parameterCategory":2,"la1":30.2991,"la2":30.254,"lo1":-89.0895,"lo2":-89.0444,"dy":0.0017,"dx":0.0017,"nx":28,"ny":28,"refTime":"2025-05-18T03:00:00:Z","depth":"2","parameterNumber":3,"parameterNumberName":"V-component_of_CURRENTS"},"data":[0,0,0,0,0,0,0,0,0,0,0,0,0,0,0,0,0,0,0,0,0,0,0,0,0,0,0,0,0,0,0,0,0,0,0,0,0,0,0,0,0,0,0,0,0,0,0,0,0,0,0,0,0,0,0,0,0,0,-0.0303,-0.0305,0,-0.0479,-0.0481,-0.0484,-0.0561,-0.0561,-0.056,-0.056,-0.07,-0.0704,-0.0708,0,0,0,0,0,0,0,0,0,0,0,0,0,-0.0175,-0.0176,-0.0303,-0.0305,-0.0307,-0.0479,-0.0482,-0.0484,-0.0561,-0.0561,-0.056,-0.056,-0.0698,-0.0703,-0.0708,0,0,0,0,0,0,0,0,0,0,0,0,0,-0.028,-0.0177,-0.0302,-0.0365,-0.0372,-0.0478,-0.0482,-0.0485,-0.0561,-0.0561,-0.056,-0.056,-0.0697,-0.0703,-0.0709,-0.0757,0,0,-0.0727,-0.073,0,0,0,0,0,0,0,0,-0.0274,-0.0285,-0.0354,-0.0361,-0.0369,-0.0497,-0.0488,-0.0574,-0.0561,-0.0491,-0.056,-0.0559,-0.0628,-0.064,-0.0676,-0.0764,-0.077,-0.0728,-0.0732,-0.0734,-0.0736,0,0,0,0,0,0,0,-0.0266,-0.0278,-0.0374,-0.0356,-0.0365,-0.0434,-0.0447,-0.0506,-0.0561,-0.0497,-0.0503,-0.0521,-0.0632,-0.067,-0.068,-0.0772,-0.0728,-0.0733,-0.0737,-0.0739,-0.0878,-0.0878,0,0,0,0,0,0,-0.0235,-0.0271,-0.0368,-0.0379,-0.0318,-0.0435,-0.045,-0.0457,-0.0561,-0.0576,-0.0521,-0.0524,-0.066,-0.0673,-0.0685,-0.072,-0.0734,-0.074,-0.0743,-0.0878,-0.0878,-0.0878,0,0,0,0,0,0,-0.0232,-0.0242,-0.0361,-0.0329,-0.0348,-0.0437,-0.0445,-0.0461,-0.0488,-0.0579,-0.0594,-0.0529,-0.066,-0.0677,-0.0732,-0.0726,-0.0743,-0.0748,-0.0878,-0.0878,-0.0878,-0.0807,0,0,0,0,0,0,-0.0227,-0.0239,-0.0234,-0.0326,-0.0349,-0.042,-0.0446,-0.0465,-0.05,-0.0505,-0.0592,-0.0605,-0.0661,-0.0723,-0.0738,-0.0735,-0.0753,-0.0878,-0.0878,-0.0878,-0.0809,-0.0805,-0.08,0,0,0,0,0,-0.0222,-0.0232,-0.0232,-0.0244,-0.0338,-0.042,-0.0439,-0.0502,-0.05,-0.0521,-0.0572,-0.0602,-0.0733,-0.0728,-0.0746,-0.0745,-0.0878,-0.0878,-0.0878,-0.0811,-0.0805,-0.0801,0,0,0,0,0,0,-0.0184,-0.0243,-0.0245,-0.0273,-0.0331,-0.0433,-0.047,-0.0489,-0.0548,-0.055,-0.0613,-0.0632,-0.0677,-0.0721,-0.0713,-0.0784,-0.0806,-0.081,-0.0749,-0.0745,-0.074,-0.0678,-0.0758,0,0,0,0,0,-0.0166,-0.0184,-0.0249,-0.0271,-0.0301,-0.0373,-0.041,-0.0446,-0.0511,-0.0536,-0.0594,-0.065,-0.0696,-0.0725,-0.0784,-0.0828,-0.082,-0.0835,-0.0831,-0.0827,-0.0788,-0.0735,-0.0721,-0.0878,-0.0878,-0.0878,0,0,-0.0158,-0.0193,-0.0203,-0.0263,-0.0321,-0.0381,-0.0396,-0.0455,-0.0489,-0.0542,-0.0608,-0.0642,-0.0704,-0.0754,-0.0777,-0.0787,-0.0794,-0.0827,-0.0823,-0.0785,-0.0733,-0.0717,-0.0703,-0.0878,-0.0878,-0.0878,0,0,-0.0191,-0.0183,-0.0228,-0.0271,-0.0342,-0.038,-0.0384,-0.0471,-0.0491,-0.0558,-0.0584,-0.0594,-0.0713,-0.0722,-0.0748,-0.075,-0.0771,-0.0783,-0.0713,-0.0663,-0.0648,-0.0635,-0.0663,-0.0652,-0.0781,-0.0781,-0.0781,0,-0.018,-0.0231,-0.0255,-0.0318,-0.0341,-0.0372,-0.0418,-0.0461,-0.0546,-0.0524,-0.0576,-0.0622,-0.069,-0.0665,-0.0684,-0.0734,-0.0733,-0.0728,-0.0652,-0.0638,-0.0625,-0.0657,-0.0646,-0.0777,-0.0778,-0.0778,-0.0778,0,-0.0262,-0.0293,-0.0327,-0.0395,-0.0419,-0.0463,-0.0503,-0.0508,-0.0524,-0.0542,-0.052,-0.0582,-0.0577,-0.0619,-0.0673,-0.0602,-0.0644,-0.0649,-0.0653,-0.0604,-0.0643,-0.0633,-0.0772,-0.0774,-0.0775,-0.0775,0,0,-0.0255,-0.036,-0.0368,-0.0369,-0.0445,-0.0452,-0.0485,-0.048,-0.0414,-0.0492,-0.0405,-0.0496,-0.0453,-0.0474,-0.0497,-0.0476,-0.0439,-0.0527,-0.0526,-0.0534,-0.0375,-0.0527,-0.0532,-0.0419,-0.0415,-0.0413,-0.0458,0,-0.0307,-0.0391,-0.0435,-0.0466,-0.049,-0.0485,-0.047,-0.0449,-0.0438,-0.0367,-0.0362,-0.0325,-0.042,-0.0378,-0.0367,-0.0407,-0.0398,-0.0429,-0.0437,-0.0438,-0.056,-0.0519,-0.0425,-0.0466,-0.0449,-0.0447,-0.0446,0,-0.0383,-0.0398,-0.0442,-0.0408,-0.0409,-0.0407,-0.0283,-0.0291,-0.0205,-0.0184,-0.0124,-0.0119,-0.0091,-0.0166,-0.0189,-0.0203,-0.0274,-0.0323,-0.0326,-0.0469,-0.0569,-0.0503,-0.0449,-0.0429,-0.043,-0.0431,-0.0433,0,-0.0318,-0.0395,-0.039,-0.0398,-0.0379,-0.0322,-0.0287,-0.0203,-0.0137,-0.0039,0.0027,0.0069,0.0112,0.0051,-0.0116,-0.0123,-0.016,-0.0178,-0.0381,-0.0396,-0.0316,-0.0331,-0.0158,-0.0158,-0.0158,-0.0158,-0.0158,0,-0.0336,-0.0317,-0.0337,-0.031,-0.0203,-0.0221,-0.0084,-0.0033,0.0075,0.019,0.0154,0.0251,0.0178,0.0124,-0.0033,-0.0211,-0.0101,-0.035,-0.0393,-0.0305,-0.0316,-0.0272,-0.0284,-0.016,-0.0159,-0.0159,-0.0158,0,-0.0258,-0.0309,-0.026,-0.0205,-0.0176,-0.0076,0.0025,0.0131,0.0193,0.0346,0.0382,0.0418,0.0314,0.0151,0.0045,-0.0107,-0.0266,-0.0356,-0.0308,-0.0345,-0.0553,-0.0562,-0.0537,-0.0542,-0.0546,-0.055,-0.0553,0,-0.0227,-0.0211,-0.0143,-0.0087,-0.0051,0.0057,0.0144,0.0209,0.0306,0.0435,0.0528,0.049,0.0426,0.0139,-0.0067,-0.0359,-0.0391,-0.048,-0.0472,-0.0535,-0.0579,-0.0581,-0.0584,-0.0355,-0.0356,-0.0357,-0.0358,0,-0.0113,-0.0093,-0.0032,0.0055,0.0143,0.0226,0.0341,0.0416,0.0503,0.057,0.0638,0.0587,0.0392,0.0162,-0.0223,-0.0397,-0.0434,-0.0517,-0.0506,-0.0314,-0.0377,-0.0418,-0.0422,-0.0366,-0.0366,-0.0365,-0.0364,-0.0364,0.0001,0.006,0.0103,0.018,0.0277,0.0349,0.0402,0.0489,0.0563,0.067,0.0679,0.0622,0.0468,-0.0021,-0.0286,-0.0527,-0.0547,-0.0616,-0.0605,-0.0594,-0.0605,-0.0676,-0.0727,-0.0728,-0.0729,-0.073,-0.0731,0,0.0084,0.0117,0.0206,0.0264,0.0331,0.039,0.0498,0.0527,0.0548,0.0696,0.0698,0.0531,0.0269,0.0043,-0.029,-0.0554,-0.0481,-0.065,-0.0459,-0.0452,-0.0445,-0.044,-0.0522,-0.0522,-0.0522,-0.0522,0,0,0.0131,0.018,0.0174,0.024,0.0312,0.0394,0.0432,0.0503,0.0598,0.0637,0.068,0.068,0.0391,0.0189,-0.012,-0.0309,-0.0325,-0.0353,-0.0496,-0.0227,-0.0216,-0.0408,-0.0394,0,0,0,0,0]}],[{"header":{"parameterUnit":"m.s-1","parameterCategory":2,"la1":30.2991,"la2":30.254,"lo1":-89.0895,"lo2":-89.0444,"dy":0.0017,"dx":0.0017,"nx":28,"ny":28,"refTime":"2025-05-18T03:00:00:Z","depth":"4","parameterNumber":2,"parameterNumberName":"U-component_of_CURRENTS"},"data":[0,0,0,0,0,0,0,0,0,0,0,0,0,0,0,0,0,0,0,0,0,0,0,0,0,0,0,0,0,0,0,0,0,0,0,0,0,0,0,0,0,0,0,0,0,0,0,0,0,0,0,0,0,0,0,0,0,0,0.0322,0.0322,0,0.0316,0.0316,0.0316,0.0331,0.0332,0.0333,0.0333,0.0356,0.0356,0.0356,0,0,0,0,0,0,0,0,0,0,0,0,0,0.0329,0.0329,0.0322,0.0322,0.0323,0.0316,0.0316,0.0316,0.0331,0.0332,0.0333,0.0334,0.0356,0.0356,0.0356,0,0,0,0,0,0,0,0,0,0,0,0,0,0.0324,0.0329,0.0322,0.0331,0.0331,0.0316,0.0316,0.0315,0.0331,0.0332,0.0333,0.0334,0.0356,0.0356,0.0356,0.0338,0,0,0.0356,0.0356,0,0,0,0,0,0,0,0,0.0324,0.0323,0.0329,0.033,0.0331,0.0327,0.0327,0.0325,0.0331,0.033,0.0333,0.0334,0.0349,0.035,0.0344,0.0339,0.034,0.0356,0.0356,0.0356,0.0356,0,0,0,0,0,0,0,0.0324,0.0324,0.0319,0.0329,0.033,0.0328,0.0328,0.0326,0.0334,0.033,0.0331,0.0332,0.0349,0.0344,0.0345,0.034,0.0356,0.0356,0.0356,0.0356,0.0389,0.039,0,0,0,0,0,0,0.0328,0.0324,0.0319,0.0319,0.0331,0.0327,0.0327,0.0326,0.0333,0.0335,0.0332,0.0333,0.0343,0.0345,0.0346,0.0396,0.0356,0.0356,0.0356,0.0388,0.0389,0.039,0,0,0,0,0,0,0.0328,0.0327,0.0319,0.0322,0.0321,0.0326,0.0324,0.0325,0.0337,0.0334,0.0337,0.0344,0.0344,0.0346,0.0363,0.0394,0.0356,0.0356,0.0387,0.0388,0.0389,0.0451,0,0,0,0,0,0,0.0328,0.0327,0.0335,0.0322,0.0321,0.0311,0.0324,0.0325,0.0335,0.0338,0.0346,0.0348,0.0345,0.0363,0.0363,0.0394,0.0356,0.0386,0.0388,0.0389,0.0447,0.0454,0.0459,0,0,0,0,0,0.0328,0.0322,0.0335,0.0335,0.0329,0.031,0.0309,0.0315,0.0335,0.0331,0.0351,0.0348,0.0373,0.0363,0.0363,0.0395,0.0385,0.0387,0.0389,0.0445,0.0453,0.0459,0,0,0,0,0,0,0.0328,0.0323,0.0337,0.0332,0.0327,0.0314,0.0312,0.0323,0.0334,0.0348,0.0354,0.0356,0.0382,0.0375,0.0365,0.0408,0.0381,0.0382,0.0423,0.043,0.0436,0.0465,0.0356,0,0,0,0,0,0.0333,0.0329,0.0325,0.0322,0.0321,0.0324,0.0323,0.0329,0.0333,0.034,0.0355,0.0371,0.0385,0.0398,0.04,0.0421,0.0429,0.0442,0.0448,0.0453,0.0476,0.0502,0.0513,0.0396,0.0396,0.0396,0,0,0.0332,0.033,0.0328,0.0323,0.0322,0.0322,0.0325,0.0323,0.034,0.034,0.0375,0.0387,0.0393,0.042,0.0432,0.0423,0.0491,0.0456,0.046,0.0481,0.0505,0.0517,0.0527,0.0397,0.0397,0.0397,0,0,0.0316,0.0327,0.0318,0.0318,0.0321,0.0324,0.0329,0.0334,0.0352,0.0376,0.0393,0.0432,0.0439,0.0468,0.0478,0.0516,0.0515,0.0513,0.0576,0.06,0.061,0.0619,0.0648,0.0659,0.0523,0.0523,0.0523,0,0.0323,0.0315,0.0312,0.0309,0.0321,0.033,0.0337,0.0348,0.0365,0.0416,0.0393,0.047,0.0467,0.0536,0.055,0.0534,0.0545,0.0549,0.0609,0.0618,0.0627,0.0654,0.0665,0.0527,0.0526,0.0526,0.0526,0,0.0299,0.0307,0.03,0.031,0.032,0.0321,0.0344,0.0378,0.0411,0.0454,0.0529,0.0527,0.059,0.0586,0.0579,0.0652,0.064,0.0608,0.0595,0.0643,0.0667,0.0678,0.0531,0.053,0.0529,0.0528,0,0,0.0277,0.0285,0.0285,0.0309,0.0329,0.0336,0.0382,0.0449,0.0529,0.0547,0.0642,0.0668,0.0708,0.0722,0.0721,0.0739,0.0799,0.0706,0.0706,0.0742,0.0862,0.0797,0.0803,0.0776,0.0778,0.078,0.0858,0,0.0267,0.0268,0.028,0.031,0.0321,0.0371,0.0436,0.051,0.0571,0.0663,0.0702,0.0779,0.0745,0.0785,0.0802,0.0802,0.0831,0.0782,0.0806,0.0807,0.0749,0.0814,0.0786,0.0866,0.0868,0.087,0.0871,0,0.0236,0.0252,0.0272,0.0354,0.0371,0.0418,0.0552,0.0607,0.0747,0.0798,0.0884,0.0915,0.0981,0.0913,0.0962,0.0932,0.0916,0.0896,0.0898,0.0828,0.0762,0.0806,0.0891,0.0889,0.0888,0.0887,0.0885,0,0.0214,0.0249,0.0276,0.0293,0.0385,0.0458,0.0541,0.0687,0.0767,0.0902,0.0969,0.1047,0.1094,0.1078,0.1056,0.1018,0.1081,0.102,0.0952,0.0947,0.0954,0.0943,0.1055,0.1055,0.1055,0.1055,0.1054,0,0.0192,0.0212,0.0288,0.0306,0.0414,0.0491,0.0637,0.073,0.0876,0.098,0.1055,0.1091,0.1135,0.1168,0.1112,0.1082,0.1137,0.099,0.0971,0.0976,0.0968,0.0962,0.095,0.1058,0.1057,0.1056,0.1056,0,0.0148,0.0181,0.0221,0.0339,0.04,0.0486,0.0677,0.0771,0.0924,0.1041,0.1084,0.1174,0.1203,0.1237,0.1232,0.117,0.1128,0.11,0.1141,0.1117,0.0963,0.0954,0.1037,0.1036,0.1034,0.1033,0.1033,0,0.0119,0.0133,0.0237,0.0284,0.0349,0.0495,0.06,0.0775,0.085,0.1042,0.1061,0.1179,0.1214,0.1184,0.1186,0.1158,0.1115,0.1124,0.1014,0.0993,0.0966,0.0958,0.0951,0.1031,0.103,0.103,0.103,0,0.0075,0.0108,0.0145,0.0243,0.0343,0.044,0.0593,0.0645,0.0831,0.0979,0.1038,0.108,0.1129,0.1113,0.1156,0.109,0.1132,0.111,0.111,0.1007,0.0986,0.0959,0.0952,0.1025,0.1026,0.1026,0.1027,0,0.0038,0.0047,0.0097,0.0191,0.0284,0.0346,0.0447,0.0553,0.0664,0.0894,0.0884,0.0988,0.1099,0.1075,0.1055,0.1065,0.101,0.0959,0.0966,0.0971,0.0908,0.087,0.0883,0,0,0,0,0,0.0006,0.0003,0.0054,0.0128,0.021,0.0278,0.0412,0.0504,0.0689,0.0717,0.0824,0.0856,0.0903,0.091,0.0898,0.0966,0.0981,0.0943,0.0916,0.1001,0.1006,0.0936,0,0,0,0,0,0,-0.0026,-0.0008,0.0014,0.0055,0.0101,0.0186,0.0259,0.0384,0.041,0.0604,0.0614,0.0795,0.0815,0.0907,0.0877,0.0891,0.0853,0.1024,0.1022,0.0999,0.1003,0.1007,0.0937,0,0,0,0,0]},{"header":{"parameterUnit":"m.s-1","parameterCategory":2,"la1":30.2991,"la2":30.254,"lo1":-89.0895,"lo2":-89.0444,"dy":0.0017,"dx":0.0017,"nx":28,"ny":28,"refTime":"2025-05-18T03:00:00:Z","depth":"4","parameterNumber":3,"parameterNumberName":"V-component_of_CURRENTS"},"data":[0,0,0,0,0,0,0,0,0,0,0,0,0,0,0,0,0,0,0,0,0,0,0,0,0,0,0,0,0,0,0,0,0,0,0,0,0,0,0,0,0,0,0,0,0,0,0,0,0,0,0,0,0,0,0,0,0,0,0.0106,0.0106,0,0.0118,0.0118,0.0118,0.006,0.0059,0.0057,0.0056,-0.0078,-0.008,-0.0083,0,0,0,0,0,0,0,0,0,0,0,0,0,0.0084,0.0084,0.0106,0.0106,0.0107,0.0118,0.0118,0.0118,0.006,0.0059,0.0057,0.0056,-0.0077,-0.008,-0.0083,0,0,0,0,0,0,0,0,0,0,0,0,0,0.0091,0.0084,0.0106,0.0082,0.008,0.0118,0.0118,0.0118,0.0061,0.0059,0.0057,0.0055,-0.0076,-0.008,-0.0083,-0.0064,0,0,-0.0094,-0.0095,0,0,0,0,0,0,0,0,0.0091,0.0092,0.0085,0.0084,0.0082,0.0089,0.0061,0.0051,0.0061,0.0064,0.0056,0.0054,-0.0032,-0.0039,-0.0036,-0.0071,-0.0076,-0.0094,-0.0096,-0.0098,-0.0099,0,0,0,0,0,0,0,0.009,0.0091,0.0107,0.0086,0.0084,0.0089,0.0087,0.006,0.0022,0.0064,0.0061,0.0068,-0.0035,-0.0032,-0.004,-0.0078,-0.0094,-0.0097,-0.0099,-0.0101,-0.0184,-0.0184,0,0,0,0,0,0,0.0096,0.0091,0.0107,0.0108,0.0086,0.0091,0.0088,0.0086,0.0025,0.0016,0.007,0.0066,-0.0025,-0.0035,-0.0045,-0.0063,-0.0098,-0.0101,-0.0103,-0.0184,-0.0184,-0.0184,0,0,0,0,0,0,0.0095,0.0097,0.0106,0.0103,0.0105,0.0093,0.0091,0.0087,0.0074,0.0032,0.0019,0.006,-0.0027,-0.004,-0.008,-0.0068,-0.0103,-0.0106,-0.0184,-0.0184,-0.0184,-0.0077,0,0,0,0,0,0,0.0094,0.0096,0.0094,0.0103,0.0105,0.0128,0.0093,0.0089,0.0085,0.0078,0.0019,0.0006,-0.003,-0.0074,-0.0083,-0.0073,-0.0109,-0.0184,-0.0184,-0.0184,-0.008,-0.0074,-0.0068,0,0,0,0,0,0.0093,0.0106,0.0094,0.0096,0.0103,0.0129,0.0131,0.0114,0.0086,0.0091,0.0043,0.0007,-0.0083,-0.0076,-0.0087,-0.0078,-0.0184,-0.0184,-0.0184,-0.0083,-0.0075,-0.0068,0,0,0,0,0,0,0.0085,0.0102,0.0088,0.01,0.0112,0.012,0.0135,0.0114,0.0085,0.0072,0.0013,-0.0002,-0.0034,-0.0074,-0.0066,-0.0107,-0.0142,-0.0145,-0.0062,-0.0055,-0.0048,-0.0072,-0.0111,0,0,0,0,0,0.0087,0.0106,0.0113,0.0125,0.0135,0.0131,0.0138,0.0126,0.0108,0.0094,0.0055,0.0003,-0.0037,-0.0062,-0.0099,-0.0114,-0.0189,-0.0121,-0.0115,-0.0109,-0.0138,-0.0249,-0.0255,-0.0185,-0.0185,-0.0185,0,0,0.0089,0.0102,0.011,0.0126,0.0137,0.0167,0.0129,0.0148,0.0162,0.0083,0.0081,0.0027,-0.0038,-0.0056,-0.0075,-0.0091,-0.0158,-0.0109,-0.0103,-0.0137,-0.025,-0.0257,-0.0263,-0.0185,-0.0185,-0.0185,0,0,0.013,0.0115,0.0156,0.0171,0.0194,0.0192,0.0196,0.0201,0.019,0.0189,0.0124,0.0068,0.0034,-0.0023,-0.0054,-0.0041,-0.0121,-0.0047,-0.0031,-0.0136,-0.0143,-0.0151,-0.0207,-0.0221,-0.0043,-0.0043,-0.0043,0,0.013,0.0171,0.017,0.0216,0.0226,0.0205,0.0239,0.0243,0.0229,0.0201,0.0199,0.0082,0.0047,-0.0028,-0.0014,-0.0026,-0.0092,-0.0044,-0.0128,-0.0137,-0.0147,-0.0204,-0.022,-0.0038,-0.0038,-0.0039,-0.0039,0,0.0211,0.0234,0.0263,0.0306,0.0315,0.0343,0.0344,0.0341,0.032,0.0293,0.0221,0.0159,0.0062,0.0068,0.0041,-0.0048,-0.0071,-0.0103,-0.0143,-0.0147,-0.0207,-0.0225,-0.003,-0.0032,-0.0034,-0.0035,0,0,0.0231,0.0303,0.0312,0.0327,0.0356,0.0366,0.0391,0.0377,0.0345,0.0324,0.0254,0.0206,0.0117,0.0071,0.0009,-0.0058,-0.0136,-0.01,-0.0107,-0.0148,-0.0348,-0.0214,-0.0223,-0.0189,-0.0193,-0.0196,-0.0345,0,0.0288,0.037,0.0393,0.0443,0.0468,0.0451,0.0467,0.0442,0.0397,0.0328,0.0235,0.0144,0.0134,0.0059,-0.0006,-0.0128,-0.019,-0.0091,-0.0348,-0.0355,-0.0231,-0.0242,-0.0208,-0.0359,-0.0364,-0.0367,-0.037,0,0.0361,0.0394,0.046,0.0475,0.0485,0.0515,0.047,0.0472,0.0379,0.0325,0.0203,0.0106,-0.0024,-0.0029,-0.0233,-0.0176,-0.026,-0.0326,-0.0334,-0.0274,-0.0259,-0.0371,-0.0405,-0.0402,-0.04,-0.0397,-0.0395,0,0.0355,0.0431,0.0471,0.0486,0.0514,0.0527,0.0525,0.0465,0.0426,0.0277,0.0203,0.0034,-0.0074,-0.0216,-0.0313,-0.0315,-0.0508,-0.0541,-0.0495,-0.0486,-0.061,-0.0602,-0.0692,-0.0692,-0.0692,-0.0691,-0.0691,0,0.0391,0.0416,0.0478,0.0494,0.0516,0.0527,0.0504,0.047,0.038,0.0322,0.0172,0.0089,-0.0131,-0.0247,-0.0348,-0.0448,-0.0548,-0.0506,-0.0527,-0.0552,-0.0537,-0.0621,-0.061,-0.0697,-0.0695,-0.0694,-0.0693,0,0.0372,0.0425,0.0458,0.0503,0.052,0.0522,0.0511,0.0478,0.0395,0.0304,0.0244,0.0081,-0.0058,-0.0212,-0.0429,-0.0475,-0.0596,-0.06,-0.0572,-0.0588,-0.0507,-0.049,-0.0632,-0.0629,-0.0626,-0.0624,-0.0622,0,0.0366,0.0391,0.045,0.0469,0.0498,0.0507,0.0516,0.0476,0.0449,0.0336,0.0305,0.0141,0.0042,-0.0171,-0.0316,-0.0509,-0.0509,-0.059,-0.0593,-0.05,-0.0508,-0.0495,-0.0482,-0.0618,-0.0617,-0.0617,-0.0616,0,0.0328,0.0361,0.0387,0.0444,0.0481,0.05,0.0527,0.0498,0.0462,0.0394,0.0322,0.0191,0.0065,-0.0115,-0.0239,-0.0369,-0.0563,-0.0564,-0.0572,-0.0575,-0.0485,-0.0492,-0.0482,-0.0606,-0.0608,-0.0609,-0.0609,0,0.0287,0.03,0.0362,0.0409,0.0461,0.0508,0.0503,0.0511,0.0483,0.0395,0.0397,0.0235,0.0134,-0.0035,-0.0139,-0.0258,-0.0314,-0.0381,-0.0401,-0.0413,-0.0276,-0.0124,-0.0167,0,0,0,0,0,0.0243,0.0276,0.0319,0.0389,0.0447,0.0491,0.053,0.0525,0.0513,0.0473,0.043,0.0331,0.0145,0.0057,-0.0045,-0.0097,-0.0333,-0.0218,-0.042,-0.0554,-0.0565,-0.0426,0,0,0,0,0,0,0.0217,0.0258,0.0312,0.039,0.0425,0.0499,0.0524,0.0512,0.0499,0.046,0.0363,0.0316,0.0136,0.0198,-0.0049,-0.0082,-0.022,-0.0305,-0.0307,-0.0548,-0.0558,-0.0567,-0.0428,0,0,0,0,0]}]]